INTELSAT 15 (IS-15)

Last updated on Fri Dec 19 2025 00:02:49 GMT+0000 (Coordinated Universal Time)

1 36106U 09067A 25352.57085471 -.00000160 00000+0 00000+0 0 9998 2 36106 0.0172 353.6231 0002140 284.4963 99.9780 1.00272283 39418
UTC large
Height (km)
Speed (km/s)
/
Latitude / Longitude
Inclination (degrees)
Orbital Period (minutes)
Azimuth
Elevation
Range (km)
Doppler Factor

Next 0 passes for location: London (51.5072 / 0.1276)

Sorry there are no passes over London.